Other Public Products
Issued by NWS Grand Forks, ND

Home | Current Version | Previous Version | Graphics & Text | Print | Product List | Glossary On
Versions: 1 2 3 4 5 6 7 8 9 10 11 12 13 14 15 16 17 18 19 20 21 22 23 24 25 26 27 28 29 30 31 32 33 34 35 36 37 38 39 40 41 42 43 44 45 46 47 48 49 50
000
FPUS83 KFGF 300610
OPUFGF
PRAIRIE TO PINES WEATHER ROUNDUP
NATIONAL WEATHER SERVICE EASTERN NORTH DAKOTA/GRAND FORKS ND
100 AM CDT SAT APR 30 2016

 **SATELLITE DATA USED TO AUGMENT SKY COVER AT AUTOMATED STATIONS**
 *****  WEATHER ACROSS EASTERN NORTH DAKOTA  *****

CITY           SKY/WX    TMP DP  RH WIND       PRES   REMARKS
GRAND FORKS    CLEAR     47  32  56 NE10      30.17F
6HR MIN TEMP:  47; 6HR MAX TEMP:  62;

GRAND FORKS AF PTCLDY    45  30  56 E9        30.18S
GRAND CITY NWS NOT AVBL
BUXTON         NOT AVBL
DEVILS LAKE    CLEAR     42  30  62 NE8       30.19S
6HR MIN TEMP:  42; 6HR MAX TEMP:  59;

FARGO          CLEAR     50  32  50 E13       30.12S
6HR MIN TEMP:  50; 6HR MAX TEMP:  64;

WAHPETON ARPT  CLEAR     41  36  81 E3        30.12R
$$

 *****  WEATHER ACROSS CENTRAL AND WESTERN NORTH DAKOTA  *****

CITY           SKY/WX    TMP DP  RH WIND       PRES   REMARKS
JAMESTOWN      CLEAR     45  32  60 NE13      30.12S
6HR MIN TEMP:  45; 6HR MAX TEMP:  60;

BISMARCK       CLEAR     42  34  73 NE9       30.13S
6HR MIN TEMP:  42; 6HR MAX TEMP:  60;

MINOT          CLEAR     45  29  53 NE6       30.18R
6HR MIN TEMP:  45; 6HR MAX TEMP:  64;

MINOT AFB      CLEAR     44  29  54 NE6       30.18R
6HR MIN TEMP:  40; 6HR MAX TEMP:  61;

GARRISON         N/A     45  30  55 E12       30.15R
6HR MIN TEMP:  44; 6HR MAX TEMP:  59;

WILLISTON      CLEAR     45  27  49 E8        30.15S
6HR MIN TEMP:  45; 6HR MAX TEMP:  61;

DICKINSON      PTCLDY    39  30  70 E8        30.09S
6HR MIN TEMP:  39; 6HR MAX TEMP:  55;

HETTINGER      CLOUDY    35  31  85 CALM      30.10S
6HR MIN TEMP:  33; 6HR MAX TEMP:  55;

$$

 *****  OTHER OBSERVATIONS NORTHEAST NORTH DAKOTA  *****

CITY           SKY/WX    TMP DP  RH WIND       PRES   REMARKS
WALHALLA       FAIR      37  34  87 NW6       30.24R
LANGDON        FAIR      41  28  60 NE9       30.22S
CAVALIER       FAIR      45  32  61 N5        30.22R
GRAFTON        FAIR      39  32  75 N5        30.22R
CANDO          FAIR      41  28  60 NE10      30.23R
FORT TOTTEN      N/A     44  31  59 NE5       29.95S
ROLLA          MOCLDY    39  27  60 NE10      30.23S
RUGBY          FAIR      37  30  75 E8        30.20R
 ***** THE ABOVE OBSERVATIONS ARE NON NWS ARE NOT QUALITY
        CONTROLLED AND MAY MIS-REPORT RAIN FOR SNOW...
$$

 *****  OTHER OBSERVATIONS SOUTHEAST NORTH DAKOTA *****

CITY           SKY/WX    TMP DP  RH WIND       PRES   REMARKS
COOPERSTOWN    NOT AVBL
VALLEY CITY    FAIR      45  32  61 NE12      30.15R
OAKES            N/A    N/A N/A N/A MISG        N/A
GWINNER        FAIR      43  39  87 SE3       30.11R
SHEYENNE NWR     N/A     42  32  68 E3        29.95S
BUFFALO        NOT AVBL
WYNDMERE         N/A     43  36  75 NW3         N/A
 ***** THE ABOVE OBSERVATIONS ARE NON NWS ARE NOT QUALITY
       CONTROLLED AND MAY MIS-REPORT RAIN FOR SNOW...
$$

  *****  WEATHER ACROSS NORTHERN MINNESOTA  *****

CITY           SKY/WX    TMP DP  RH WIND       PRES   REMARKS
FLAG ISLAND    CLEAR     45  30  57 E6        30.25S
WARROAD        CLEAR     37  34  87 E6        30.24S
ROSEAU         CLEAR     43  34  70 E6        30.23R
HALLOCK        CLEAR     45  30  57 E5        30.21S
THF RVR FALLS  CLEAR     43  30  61 NE9       30.21R
6HR MIN TEMP:  43; 6HR MAX TEMP:  61;

HALSTAD        NOT AVBL
FOSSTON        CLEAR     43  30  61 E8        30.18R
BAUDETTE       CLEAR     40  29  64 E7        30.23S
6HR MIN TEMP:  40; 6HR MAX TEMP:  56;

WASKISH        CLEAR     43  34  70 E7        30.22S
CROOKSTON      CLEAR     45  32  61 E9        30.18S
$$
  *****  WEATHER ACROSS CENTRAL AND WEST MINNESOTA  *****

CITY           SKY/WX    TMP DP  RH WIND       PRES   REMARKS
BEMIDJI        CLEAR     41  32  70 E7        30.19R
PARK RAPIDS    CLEAR     47  31  53 E10       30.16R
6HR MIN TEMP:  47; 6HR MAX TEMP:  61;

WADENA         CLEAR     43  30  61 E7        30.15R
DETROIT LAKES  CLEAR     48  32  53 E9        30.15R
MOORHEAD       CLEAR     45  34  65 NE9       30.14R
FERGUS FALLS   CLEAR     46  36  66 E3        30.11R
ELBOW LAKE     FAIR      47  36  63 E7        30.13R
MORRIS MN      CLEAR     46  36  66 E8        30.11R
STAPLES        CLEAR     45  30  57 E5        30.16R
WHEATON        CLEAR     45  39  81 CALM      30.13R
$$
  *****  WEATHER ELSEWHERE ACROSS MINNESOTA  *****

CITY           SKY/WX    TMP DP  RH WIND       PRES   REMARKS
DULUTH         CLEAR     36  28  73 E7        30.20R
6HR MIN TEMP:  35; 6HR MAX TEMP:  47;

INTRNTL FALLS  PTCLDY    40  31  70 E6        30.25S
6HR MIN TEMP:  38; 6HR MAX TEMP:  55;

ELY            PTCLDY    39  30  70 NE3       30.23S
CLOQUET        CLEAR     39  28  65 SE5       30.21R
BRAINERD       CLEAR     43  28  55 E7        30.18R
6HR MIN TEMP:  43; 6HR MAX TEMP:  59;

HIBBING        CLEAR     33  29  85 NE5       30.21S
6HR MIN TEMP:  29; 6HR MAX TEMP:  53;

ALEXANDRIA     CLEAR     46  32  58 E9        30.14R
6HR MIN TEMP:  44; 6HR MAX TEMP:  57;

SAINT CLOUD    CLEAR     45  32  60 NE9       30.14R
6HR MIN TEMP:  45; 6HR MAX TEMP:  59;

MINNEAPOLIS    MOCLDY    48  39  71 NE6       30.13F
6HR MIN TEMP:  48; 6HR MAX TEMP:  59;

$$

  *****  WEATHER ACROSS SOUTH DAKOTA  *****

CITY           SKY/WX    TMP DP  RH WIND       PRES   REMARKS
SIOUX FALLS    CLOUDY    44  39  82 E6        30.06R
6HR MIN TEMP:  41; 6HR MAX TEMP:  50;

BROOKINGS      CLOUDY    39  36  89 E3        30.07S
WATERTOWN      CLOUDY    39  36  89 N3        30.08R
6HR MIN TEMP:  39; 6HR MAX TEMP:  51;

HURON          CLOUDY    42  39  89 NE7       30.06F
6HR MIN TEMP:  41; 6HR MAX TEMP:  50;

SISSETON         N/A     39  36  89 N5        30.10R
ABERDEEN       CLEAR     40  36  86 N3        30.10S
6HR MIN TEMP:  40; 6HR MAX TEMP:  56;

MITCHELL       CLOUDY    46  42  86 NE12      30.04F
PIERRE         CLOUDY    41  38  89 NE9       30.04S
6HR MIN TEMP:  38; 6HR MAX TEMP:  51;

MOBRIDGE       MOCLDY    44  40  85 E6        30.06F
RAPID CITY     CLOUDY    40  37  89 N6        30.04F
6HR MIN TEMP:  40; 6HR MAX TEMP:  45;

$$

  *****  SOME WEATHER IN NEARBY STATES *****

CITY           SKY/WX    TMP DP  RH WIND       PRES   REMARKS
GLASGOW MT     CLOUDY    46  35  65 E9        30.12R
6HR MIN TEMP:  43; 6HR MAX TEMP:  56;

GREAT FALLS MT CLOUDY    40  34  79 E8        30.01R
6HR MIN TEMP:  40; 6HR MAX TEMP:  51;

CHEYENNE WY    LGT SNOW  30  29  96 N9        29.88F FOG     WCI  22
6HR MIN TEMP:  30; 6HR MAX TEMP:  32; 6HR PCP:  0.08;

SCOTTSBLUFF NE LGT SNOW  33  32  96 N5        29.93F FOG
6HR MIN TEMP:  33; 6HR MAX TEMP:  38; 6HR PCP:  0.29;

OMAHA NE       LGT RAIN  47  43  86 NE14      29.90F
6HR MIN TEMP:  47; 6HR MAX TEMP:  50; 6HR PCP:  0.02;

DES MOINES IA  LGT RAIN  48  41  76 E15G25    29.96F
6HR MIN TEMP:  48; 6HR MAX TEMP:  50; 6HR PCP: TRACE;

DAVENPORT IA   MOCLDY    46  40  79 E9        30.04S
6HR MIN TEMP:  46; 6HR MAX TEMP:  49;

CHICAGO IL     CLOUDY    43  37  79 E8        30.09F
6HR MIN TEMP:  43; 6HR MAX TEMP:  45;

EAU CLAIRE WI  MOCLDY    46  34  62 NE7       30.12S
6HR MIN TEMP:  42; 6HR MAX TEMP:  56;

LA CROSSE WI   PTCLDY    43  38  82 E3        30.11R
6HR MIN TEMP:  42; 6HR MAX TEMP:  53;

$$

  *****  SOME NATIONAL WEATHER *****

CITY           SKY/WX    TMP DP  RH WIND       PRES   REMARKS
LA GUARDIA NY  CLOUDY    49  39  68 N6        30.16S
6HR MIN TEMP:  47; 6HR MAX TEMP:  51; 6HR PCP:  0.02;              C1F1C2F2C3F3C4F4C5F5C6F6C7F7C8F8C9F9CaFaCbFbCcFcCdFdCe!



USA.gov is the U.S. government's official web portal to all federal, state and local government web resources and services.